Total_Precipitation_Accumulation
0.00 0.00 0.01 0.00 0.01 0.03 0.03 0.02 0.01 0.00 0.00 0.00 0.00 0.00 0.00 0.00 0.00 0.00 0.00 0.01 0.01 0.01 0.02 0.02 0.02 0.02 0.02 0.02 0.02 0.01 0.00 0.00 0.00 0.00 0.00 0.00 0.00 0.00 0.00 0.00 0.00 0.00 0.00
0.00 0.00 0.00 0.00 0.01 0.03 0.05 0.05 0.03 0.02 0.00 0.00 0.00 0.01 0.01 0.01 0.00 0.00 0.00 0.00 0.00 0.01 0.01 0.02 0.02 0.01 0.01 0.01 0.01 0.01 0.01 0.00 0.00 0.00 0.00 0.00 0.00 0.00 0.00 0.00 0.00 0.00 0.00
0.00 0.00 0.00 0.00 0.01 0.02 0.05 0.05 0.06 0.05 0.01 0.01 0.01 0.03 0.06 0.03 0.01 0.00 0.00 0.00 0.00 0.00 0.00 0.01 0.01 0.01 0.00 0.00 0.00 0.01 0.01 0.01 0.00 0.00 0.00 0.00 0.00 0.00 0.00 0.00 0.00 0.00 0.00
0.00 0.00 0.00 0.00 0.01 0.01 0.03 0.05 0.07 0.06 0.03 0.02 0.04 0.06 0.07 0.04 0.01 0.00 0.00 0.00 0.00 0.00 0.00 0.00 0.01 0.00 0.00 0.00 0.00 0.00 0.00 0.00 0.00 0.00 0.00 0.01 0.02 0.01 0.00 0.00 0.00 0.00 0.00
0.00 0.00 0.01 0.01 0.01 0.01 0.02 0.03 0.07 0.09 0.06 0.05 0.08 0.09 0.07 0.05 0.03 0.02 0.01 0.02 0.02 0.00 0.00 0.00 0.01 0.01 0.00 0.00 0.00 0.00 0.00 0.00 0.00 0.00 0.01 0.02 0.04 0.02 0.00 0.00 0.01 0.01 0.01
0.00 0.00 0.00 0.02 0.02 0.02 0.02 0.02 0.04 0.09 0.08 0.06 0.08 0.11 0.09 0.10 0.11 0.06 0.02 0.04 0.04 0.02 0.01 0.01 0.00 0.00 0.00 0.01 0.00 0.00 0.00 0.00 0.00 0.01 0.01 0.01 0.03 0.03 0.00 0.00 0.01 0.01 0.01
0.00 0.00 0.00 0.02 0.02 0.01 0.01 0.03 0.03 0.04 0.06 0.04 0.05 0.05 0.04 0.07 0.14 0.10 0.07 0.05 0.05 0.03 0.01 0.00 0.00 0.00 0.00 0.01 0.00 0.00 0.00 0.00 0.00 0.02 0.01 0.01 0.01 0.02 0.02 0.04 0.03 0.04 0.03
0.00 0.00 0.00 0.01 0.01 0.00 0.00 0.02 0.03 0.03 0.02 0.01 0.01 0.00 0.01 0.02 0.03 0.06 0.06 0.05 0.03 0.02 0.01 0.00 0.00 0.00 0.01 0.01 0.01 0.01 0.01 0.00 0.01 0.02 0.02 0.02 0.04 0.06 0.12 0.14 0.12 0.12 0.11
0.00 0.00 0.00 0.00 0.01 0.00 0.00 0.01 0.02 0.02 0.02 0.01 0.00 0.00 0.01 0.01 0.02 0.04 0.05 0.05 0.05 0.03 0.02 0.01 0.01 0.01 0.01 0.01 0.01 0.01 0.01 0.00 0.00 0.01 0.03 0.09 0.20 0.20 0.26 0.30 0.23 0.19 0.19
0.00 0.00 0.00 0.00 0.01 0.01 0.01 0.01 0.02 0.02 0.01 0.01 0.00 0.00 0.00 0.01 0.01 0.03 0.03 0.03 0.06 0.06 0.03 0.02 0.01 0.01 0.02 0.01 0.01 0.02 0.01 0.00 0.00 0.00 0.01 0.06 0.15 0.22 0.29 0.32 0.29 0.26 0.25
0.00 0.00 0.00 0.00 0.01 0.01 0.01 0.00 0.01 0.01 0.01 0.01 0.02 0.02 0.02 0.01 0.03 0.05 0.04 0.04 0.04 0.05 0.05 0.04 0.03 0.03 0.03 0.01 0.01 0.02 0.01 0.00 0.00 0.00 0.00 0.08 0.13 0.17 0.23 0.26 0.29 0.34 0.36
0.00 0.00 0.00 0.00 0.00 0.00 0.00 0.00 0.00 0.00 0.00 0.00 0.01 0.04 0.05 0.06 0.05 0.03 0.05 0.07 0.11 0.15 0.11 0.09 0.08 0.06 0.05 0.03 0.11 0.22 0.04 0.01 0.01 0.01 0.01 0.05 0.11 0.20 0.21 0.20 0.23 0.27 0.29
0.00 0.00 0.00 0.00 0.00 0.00 0.00 0.00 0.00 0.00 0.00 0.00 0.00 0.00 0.01 0.01 0.01 0.00 0.02 0.07 0.12 0.17 0.15 0.20 0.20 0.18 0.13 0.09 0.13 0.17 0.06 0.03 0.03 0.01 0.03 0.07 0.10 0.16 0.20 0.17 0.17 0.17 0.15
0.00 0.00 0.00 0.00 0.00 0.00 0.00 0.00 0.00 0.00 0.00 0.00 0.00 0.00 0.00 0.00 0.00 0.02 0.07 0.13 0.13 0.13 0.18 0.12 0.13 0.12 0.05 0.02 0.02 0.02 0.02 0.02 0.03 0.04 0.08 0.07 0.06 0.11 0.15 0.14 0.12 0.10 0.13
0.00 0.00 0.00 0.00 0.00 0.00 0.00 0.00 0.00 0.00 0.00 0.00 0.00 0.00 0.00 0.01 0.04 0.07 0.07 0.09 0.04 0.08 0.11 0.07 0.04 0.07 0.08 0.05 0.03 0.02 0.02 0.03 0.02 0.03 0.08 0.08 0.05 0.05 0.06 0.08 0.08 0.08 0.11
0.00 0.00 0.00 0.00 0.00 0.00 0.00 0.00 0.00 0.00 0.00 0.00 0.00 0.00 0.00 0.02 0.07 0.12 0.11 0.08 0.06 0.07 0.12 0.14 0.12 0.22 0.16 0.09 0.08 0.07 0.05 0.04 0.03 0.04 0.05 0.07 0.06 0.03 0.02 0.04 0.05 0.05 0.06
0.00 0.00 0.01 0.02 0.00 0.00 0.00 0.00 0.01 0.02 0.01 0.00 0.00 0.01 0.01 0.02 0.06 0.12 0.15 0.12 0.12 0.10 0.15 0.18 0.22 0.27 0.13 0.12 0.09 0.06 0.04 0.02 0.02 0.01 0.01 0.03 0.07 0.07 0.04 0.03 0.03 0.04 0.04
0.00 0.01 0.02 0.06 0.02 0.01 0.01 0.02 0.04 0.05 0.03 0.02 0.02 0.02 0.04 0.05 0.08 0.12 0.14 0.10 0.13 0.20 0.22 0.22 0.26 0.23 0.17 0.11 0.07 0.04 0.02 0.02 0.01 0.00 0.00 0.01 0.03 0.05 0.04 0.03 0.03 0.03 0.04
0.03 0.02 0.03 0.04 0.03 0.03 0.04 0.05 0.10 0.12 0.09 0.07 0.08 0.08 0.10 0.09 0.10 0.15 0.14 0.16 0.20 0.23 0.24 0.17 0.22 0.19 0.22 0.18 0.09 0.07 0.04 0.02 0.01 0.01 0.01 0.01 0.01 0.01 0.01 0.01 0.01 0.02 0.05
0.10 0.10 0.12 0.12 0.09 0.08 0.09 0.10 0.15 0.17 0.15 0.16 0.17 0.19 0.19 0.15 0.15 0.21 0.22 0.25 0.24 0.28 0.27 0.25 0.29 0.32 0.33 0.29 0.16 0.14 0.10 0.05 0.03 0.03 0.04 0.03 0.02 0.01 0.01 0.01 0.01 0.02 0.06
0.33 0.34 0.34 0.34 0.29 0.26 0.26 0.27 0.28 0.26 0.21 0.20 0.20 0.19 0.18 0.15 0.15 0.22 0.19 0.24 0.22 0.21 0.27 0.30 0.36 0.34 0.36 0.42 0.32 0.17 0.08 0.05 0.06 0.08 0.11 0.11 0.06 0.02 0.02 0.01 0.01 0.00 0.01
0.66 0.65 0.61 0.55 0.49 0.51 0.55 0.58 0.57 0.52 0.42 0.33 0.27 0.21 0.16 0.13 0.13 0.15 0.18 0.18 0.21 0.31 0.42 0.44 0.54 0.48 0.35 0.42 0.40 0.29 0.12 0.12 0.17 0.14 0.17 0.17 0.10 0.05 0.04 0.03 0.02 0.02 0.02
0.55 0.60 0.70 0.74 0.72 0.74 0.77 0.76 0.70 0.67 0.60 0.46 0.30 0.21 0.17 0.14 0.13 0.16 0.20 0.25 0.38 0.47 0.51 0.55 0.56 0.55 0.44 0.44 0.49 0.48 0.29 0.23 0.15 0.06 0.09 0.11 0.11 0.11 0.09 0.09 0.07 0.05 0.04
0.50 0.60 0.76 0.86 0.87 0.90 0.93 0.89 0.78 0.65 0.51 0.39 0.29 0.21 0.17 0.14 0.15 0.18 0.21 0.28 0.34 0.40 0.46 0.43 0.51 0.61 0.57 0.48 0.54 0.56 0.49 0.38 0.27 0.13 0.09 0.08 0.12 0.14 0.15 0.14 0.09 0.06 0.05
0.54 0.65 0.73 0.79 0.82 0.83 0.80 0.77 0.69 0.54 0.40 0.30 0.22 0.19 0.17 0.16 0.20 0.24 0.25 0.28 0.28 0.31 0.41 0.46 0.53 0.57 0.59 0.55 0.53 0.58 0.58 0.50 0.48 0.39 0.25 0.21 0.18 0.10 0.11 0.10 0.06 0.03 0.03
0.64 0.73 0.78 0.76 0.72 0.67 0.61 0.60 0.53 0.41 0.30 0.21 0.17 0.15 0.12 0.14 0.18 0.25 0.30 0.33 0.33 0.37 0.45 0.48 0.50 0.48 0.51 0.52 0.54 0.57 0.58 0.56 0.58 0.57 0.42 0.30 0.19 0.08 0.05 0.03 0.02 0.02 0.03